AA9VI-10 Weather Reports


Display with metric or nautical units.
time (UTC)temp
F
wind
direction
speed
MPH
gust
MPH
rain 1hr
in
rain 24hr
in
rain mn
in
humidity
%
barometer
mb
20260831184016 82 225 3.0 7.0 0.00 0.24 0.17 68 1013.7
20260831183016 84 225 4.0 11.0 0.00 0.24 0.17 61 1013.8
20260831182017 85 203 5.0 12.0 0.00 0.24 0.17 59 1013.8
20260831181016 85 180 4.0 9.0 0.00 0.24 0.17 60 1013.8
20260831180016 84 180 5.0 13.0 0.00 0.24 0.17 61 1013.8
20260831175016 84 203 4.0 10.0 0.00 0.24 0.17 61 1013.9
20260831174016 84 180 5.0 11.0 0.00 0.24 0.17 60 1014.0
20260831173016 83 225 5.0 12.0 0.00 0.24 0.17 61 1014.1
20260831172016 83 203 3.0 6.0 0.00 0.24 0.17 64 1014.3
20260831171016 82 248 4.0 13.0 0.00 0.24 0.17 64 1014.5
20260831170017 81 225 3.0 8.0 0.00 0.24 0.17 68 1014.7
20260831165016 80 203 3.0 9.0 0.00 0.24 0.17 69 1014.6
20260831164016 78 180 3.0 8.0 0.00 0.24 0.17 69 1014.5
20260831163016 77 180 3.0 4.0 0.00 0.24 0.17 72 1014.5
20260831162016 77 158 3.0 8.0 0.01 0.24 0.17 73 1014.7
20260831161016 76 158 2.0 6.0 0.01 0.24 0.17 76 1014.7
20260831160016 75 158 3.0 6.0 0.01 0.24 0.17 76 1014.7
20260831155017 75 158 2.0 4.0 0.01 0.24 0.17 78 1014.8
20260831154016 74 158 2.0 5.0 0.02 0.24 0.17 80 1014.8
20260831153016 73 180 1.0 4.0 0.02 0.24 0.17 81 1014.8
20260831152016 73 158 1.0 3.0 0.01 0.23 0.16 81 1014.9
20260831151016 73 158 1.0 4.0 0.02 0.23 0.16 81 1015.0
20260831150016 73 158 2.0 4.0 0.02 0.23 0.16 82 1015.0
20260831145016 73 180 1.0 3.0 0.03 0.23 0.16 83 1015.1
20260831144016 72 158 2.0 4.0 0.03 0.22 0.15 84 1014.9
20260831143016 72 158 1.0 3.0 0.04 0.22 0.15 84 1014.8
20260831142016 72 180 1.0 3.0 0.05 0.22 0.15 85 1014.8
20260831141016 71 158 2.0 5.0 0.06 0.21 0.14 85 1014.8
20260831140016 71 135 2.0 5.0 0.06 0.21 0.14 86 1014.7
20260831135016 70 158 2.0 4.0 0.05 0.20 0.13 87 1014.8
20260831134016 70 158 2.0 4.0 0.04 0.19 0.12 87 1015.0
20260831133016 70 0 1.0 3.0 0.03 0.18 0.11 87 1015.1
20260831132016 70 0 1.0 2.0 0.03 0.17 0.10 86 1015.4
20260831131017 70 135 1.0 3.0 0.03 0.15 0.08 85 1015.4
20260831130016 70 158 1.0 3.0 0.04 0.16 0.08 85 1015.2
20260831125016 70 0 1.0 2.0 0.08 0.16 0.08 86 1015.1
20260831124016 70 0.0 1.0 0.08 0.18 0.08 86 1015.0
20260831123016 70 0.0 1.0 0.08 0.19 0.08 86 1014.9
20260831122016 70 0 1.0 2.0 0.07 0.19 0.07 85 1014.9
20260831121016 71 0.0 1.0 0.05 0.18 0.05 83 1015.1
20260831120016 72 0.0 2.0 0.04 0.18 0.04 80 1014.8
20260831115016 73 0.0 1.0 0.00 0.15 0.00 76 1015.1
20260831114016 73 0.0 1.0 0.00 0.15 0.00 75 1015.1
20260831113016 74 0.0 2.0 0.00 0.15 0.00 74 1014.8
20260831112016 74 0.0 2.0 0.00 0.15 0.00 73 1015.0
20260831111016 74 0.0 3.0 0.00 0.15 0.00 71 1014.7
20260831110016 74 225 1.0 4.0 0.00 0.15 0.00 70 1014.0
20260831105017 75 203 3.0 7.0 0.00 0.15 0.00 70 1013.9
20260831104016 74 203 2.0 7.0 0.00 0.15 0.00 70 1013.8
20260831103016 74 225 3.0 7.0 0.00 0.15 0.00 71 1013.8
20260831102016 74 203 3.0 6.0 0.00 0.15 0.00 71 1013.8
20260831101016 74 203 3.0 8.0 0.00 0.15 0.00 73 1014.0
20260831100016 74 203 2.0 6.0 0.00 0.15 0.00 73 1013.9
20260831095016 74 225 2.0 5.0 0.00 0.15 0.00 74 1013.8
20260831094016 73 203 1.0 4.0 0.00 0.15 0.00 75 1013.8
20260831093016 73 225 2.0 5.0 0.00 0.15 0.00 76 1013.9
20260831092016 73 203 1.0 3.0 0.00 0.15 0.00 78 1013.9
20260831091016 73 225 1.0 2.0 0.00 0.15 0.00 79 1014.0
20260831090016 73 0.0 2.0 0.00 0.15 0.00 79 1014.1
20260831085016 73 0.0 1.0 0.00 0.15 0.00 79 1014.2
20260831084016 73 0.0 1.0 0.00 0.15 0.00 79 1014.2
20260831083016 73 0.0 0.0 0.00 0.15 0.00 79 1014.2
20260831082016 73 0.0 1.0 0.00 0.15 0.00 79 1014.2
20260831081016 73 0.0 0.0 0.00 0.15 0.00 79 1014.2
20260831080016 73 0.0 0.0 0.00 0.15 0.00 80 1014.2
20260831075016 73 0.0 2.0 0.00 0.15 0.00 80 1014.2
20260831074016 73 0.0 0.0 0.00 0.15 0.00 81 1014.3
20260831073016 73 0.0 1.0 0.00 0.15 0.00 81 1014.4
20260831072016 73 0.0 1.0 0.00 0.15 0.00 81 1014.7
20260831071016 73 0.0 1.0 0.00 0.15 0.00 82 1014.6
20260831070016 73 0.0 1.0 0.00 0.15 0.00 83 1014.6
20260831065016 73 0.0 1.0 0.00 0.15 0.00 83 1014.7
20260831064016 74 0.0 1.0 0.00 0.15 0.00 83 1014.7
20260831063016 74 0.0 1.0 0.00 0.15 0.00 81 1014.7
20260831062016 74 0.0 2.0 0.00 0.15 0.00 81 1014.6
20260831061016 74 135 2.0 3.0 0.00 0.15 0.00 81 1014.4
20260831060016 74 135 2.0 3.0 0.00 0.15 0.00 82 1014.7
20260831055016 73 135 2.0 3.0 0.00 0.15 0.00 86 1014.7
20260831054016 73 135 1.0 3.0 0.00 0.15 0.00 88 1014.7
20260831053016 73 135 1.0 2.0 0.00 0.15 0.00 89 1014.6
20260831052016 73 0.0 0.0 0.00 0.15 0.00 89 1014.7
20260831051016 73 0.0 0.0 0.00 0.15 0.00 89 1014.7
20260831050016 73 0.0 1.0 0.00 0.15 0.15 89 1014.5
20260831045017 73 0.0 1.0 0.00 0.15 0.15 90 1014.6
20260831044017 73 0.0 0.0 0.00 0.15 0.15 89 1014.7
20260831043017 73 0.0 0.0 0.00 0.15 0.15 89 1014.9
20260831042017 73 0.0 0.0 0.01 0.15 0.15 89 1014.8
20260831041017 73 0.0 1.0 0.02 0.15 0.15 89 1014.5
20260831040017 73 203 1.0 4.0 0.03 0.15 0.15 90 1014.1
20260831035017 73 203 1.0 3.0 0.03 0.15 0.15 90 1014.1
20260831034017 73 158 1.0 3.0 0.03 0.15 0.15 90 1014.5
20260831033017 73 203 1.0 4.0 0.03 0.15 0.15 90 1014.6
20260831032017 73 203 1.0 5.0 0.02 0.14 0.14 90 1015.0
20260831031017 73 203 1.0 6.0 0.01 0.13 0.13 90 1015.2
20260831030017 73 225 1.0 2.0 0.00 0.12 0.12 89 1015.7
20260831025017 73 203 1.0 2.0 0.02 0.12 0.12 89 1015.7
20260831024017 73 203 2.0 3.0 0.02 0.12 0.12 89 1015.7
20260831023017 73 225 1.0 3.0 0.02 0.12 0.12 89 1015.7
20260831022017 73 0.0 2.0 0.02 0.12 0.12 88 1015.6
20260831021017 73 0.0 2.0 0.02 0.12 0.12 88 1015.7
20260831020017 73 0.0 2.0 0.02 0.12 0.12 87 1015.4
20260831015017 73 203 2.0 4.0 0.00 0.10 0.10 87 1015.7
20260831014017 73 0.0 0.0 0.00 0.10 0.10 87 1015.5
20260831013017 73 0.0 0.0 0.00 0.10 0.10 87 1015.4
20260831012017 73 0.0 1.0 0.00 0.10 0.10 87 1015.3
20260831011017 74 0.0 1.0 0.00 0.10 0.10 87 1015.2
20260831010017 74 0.0 1.0 0.00 0.10 0.10 86 1014.9
20260831005017 74 0.0 1.0 0.01 0.10 0.10 86 1015.1
20260831004017 74 158 1.0 3.0 0.01 0.10 0.10 86 1015.2
20260831003017 74 180 1.0 2.0 0.01 0.10 0.10 86 1015.1
20260831002017 73 180 2.0 7.0 0.01 0.10 0.10 86 1015.1
20260831001017 73 180 2.0 5.0 0.01 0.10 0.10 86 1014.7
20260831000017 73 203 1.0 3.0 0.02 0.10 0.10 87 1015.1
20260830235017 73 158 1.0 2.0 0.01 0.09 0.09 87 1015.1
20260830234017 73 113 1.0 3.0 0.01 0.09 0.09 87 1014.8
20260830233017 73 0.0 1.0 0.01 0.09 0.09 86 1015.2
20260830232017 74 158 1.0 3.0 0.01 0.09 0.09 86 1015.4
20260830231017 74 158 1.0 4.0 0.01 0.09 0.09 85 1015.3
20260830230017 74 180 2.0 5.0 0.00 0.08 0.08 85 1015.4
20260830225017 74 203 1.0 3.0 0.00 0.08 0.08 84 1015.8
20260830224017 75 203 1.0 3.0 0.00 0.09 0.08 83 1015.9
20260830223016 75 203 1.0 3.0 0.00 0.09 0.08 81 1015.8
20260830222017 75 203 2.0 6.0 0.00 0.09 0.08 79 1015.6
20260830221017 76 0.0 3.0 0.00 0.09 0.08 78 1015.7
20260830220017 76 203 1.0 3.0 0.00 0.09 0.08 77 1015.7
20260830215017 76 203 2.0 6.0 0.00 0.09 0.08 76 1015.6
20260830214017 76 180 2.0 5.0 0.00 0.09 0.08 76 1015.7
20260830213017 77 225 3.0 6.0 0.00 0.09 0.08 74 1015.8
20260830212017 77 180 2.0 6.0 0.00 0.09 0.08 74 1015.8
20260830211017 77 225 2.0 6.0 0.00 0.09 0.08 73 1016.0
20260830210017 77 203 3.0 7.0 0.00 0.09 0.08 73 1015.9
20260830205017 78 203 2.0 4.0 0.00 0.09 0.08 72 1015.9
20260830204017 78 203 3.0 7.0 0.00 0.09 0.08 71 1016.0
20260830203017 79 203 3.0 8.0 0.00 0.09 0.08 70 1016.1
20260830202017 80 203 3.0 9.0 0.00 0.09 0.08 69 1016.1
20260830201017 80 203 4.0 12.0 0.00 0.09 0.08 68 1015.9
20260830200017 80 203 3.0 7.0 0.00 0.09 0.08 69 1015.8
20260830195017 80 203 4.0 10.0 0.00 0.09 0.08 68 1015.8
20260830194017 80 180 3.0 7.0 0.00 0.09 0.08 67 1015.8
20260830193017 80 225 4.0 8.0 0.00 0.09 0.08 66 1015.7
20260830192017 80 225 3.0 11.0 0.00 0.09 0.08 65 1015.6
20260830191017 80 203 3.0 7.0 0.00 0.09 0.08 65 1015.7
20260830190017 81 203 3.0 9.0 0.00 0.09 0.08 64 1015.9
20260830185017 81 203 1.0 4.0 0.00 0.09 0.08 65 1016.1